,,PA_Meas_PMT16A,,PR_Meas_QMR101_102,,RH_Meas_QMH101,,SR_Meas_QMS101,,TA_Meas_QMH101,,GenWind,,GenWind,
time,status,PA,status,PR,status,RH,status,SR,status,TA,status,DirAvg,status,SpdAvg,
2010-07-14, 00:00:05,VALID,917.35,VALID,0,VALID,97.29,VALID,0,VALID,19.9938,VALID,152,VALID,0,
2010-07-14, 00:01:05,VALID,917.329,VALID,0,VALID,97.3129,VALID,0,VALID,20.0343,VALID,152,VALID,0,
2010-07-14, 00:02:05,VALID,917.347,VALID,0,VALID,97.3053,VALID,0,VALID,20.0148,VALID,152,VALID,0,
2010-07-14, 00:03:05,VALID,917.347,VALID,0,VALID,97.2977,VALID,0,VALID,20.0148,VALID,152,VALID,0,
2010-07-14, 00:04:05,VALID,917.311,VALID,0,VALID,97.29,VALID,0,VALID,19.9743,VALID,152,VALID,0.497266,
2010-07-14, 00:05:05,VALID,917.295,VALID,0,VALID,97.2977,VALID,0,VALID,19.9758,VALID,152,VALID,0.686719,
2010-07-14, 00:06:05,VALID,917.276,VALID,0,VALID,97.3205,VALID,0,VALID,19.9368,VALID,152,VALID,0.776953,
2010-07-14, 00:07:05,VALID,917.275,VALID,0,VALID,97.3205,VALID,0,VALID,19.9158,VALID,152,VALID,0.702344,
2010-07-14, 00:08:05,VALID,917.272,VALID,0,VALID,97.29,VALID,0,VALID,19.8783,VALID,152,VALID,0.412109,
2010-07-14, 00:09:05,VALID,917.268,VALID,0,VALID,97.3281,VALID,0,VALID,19.8378,VALID,152,VALID,0.175391,
2010-07-14, 00:10:05,VALID,917.313,VALID,0,VALID,97.3129,VALID,0,VALID,19.8393,VALID,152,VALID,0,
2010-07-14, 00:11:05,VALID,917.3,VALID,0,VALID,97.3205,VALID,0,VALID,19.8183,VALID,152,VALID,0,
2010-07-14, 00:12:05,VALID,917.319,VALID,0,VALID,97.3129,VALID,0,VALID,19.8588,VALID,152,VALID,0,
2010-07-14, 00:13:05,VALID,917.283,VALID,0,VALID,97.3129,VALID,0,VALID,19.8378,VALID,152,VALID,0,
2010-07-14, 00:14:05,VALID,917.276,VALID,0,VALID,97.3053,VALID,0,VALID,19.8393,VALID,152,VALID,0,
2010-07-14, 00:15:05,VALID,917.284,VALID,0,VALID,97.3281,VALID,0,VALID,19.7988,VALID,152,VALID,0.138672,
2010-07-14, 00:16:05,VALID,917.285,VALID,0,VALID,97.3434,VALID,0,VALID,19.8003,VALID,152,VALID,0.268359,
2010-07-14, 00:17:05,VALID,917.245,VALID,0,VALID,97.3281,VALID,0,VALID,19.7208,VALID,152,VALID,0.435156,
2010-07-14, 00:18:05,VALID,917.251,VALID,0,VALID,97.3129,VALID,0,VALID,19.6818,VALID,152,VALID,0.531641,
2010-07-14, 00:19:05,VALID,917.249,VALID,0,VALID,97.3281,VALID,0,VALID,19.6428,VALID,152,VALID,0.606641,
2010-07-14, 00:20:05,VALID,917.235,VALID,0,VALID,97.351,VALID,0,VALID,19.6233,VALID,152,VALID,0.708594,
2010-07-14, 00:21:05,VALID,917.204,VALID,0,VALID,97.3586,VALID,0,VALID,19.6428,VALID,152,VALID,0.596094,
2010-07-14, 00:22:05,VALID,917.2,VALID,0,VALID,97.3281,VALID,0,VALID,19.6053,VALID,152,VALID,0.78125,
2010-07-14, 00:23:05,VALID,917.208,VALID,0,VALID,97.3586,VALID,0,VALID,19.5648,VALID,152,VALID,0.634375,
2010-07-14, 00:24:05,VALID,917.214,VALID,0,VALID,97.3358,VALID,0,VALID,19.5258,VALID,152,VALID,0.830859,
2010-07-14, 00:25:05,VALID,917.201,VALID,0,VALID,97.3586,VALID,0,VALID,19.5648,VALID,152,VALID,1.14219,
2010-07-14, 00:26:05,VALID,917.194,VALID,0,VALID,97.3739,VALID,0,VALID,19.5843,VALID,152,VALID,0.812891,
2010-07-14, 00:27:05,VALID,917.173,VALID,0,VALID,97.3663,VALID,0,VALID,19.6248,VALID,152,VALID,0.969141,
2010-07-14, 00:28:05,VALID,917.14,VALID,0,VALID,97.3891,VALID,0,VALID,19.6038,VALID,152,VALID,0.792188,
2010-07-14, 00:29:05,VALID,917.111,VALID,0,VALID,97.3739,VALID,0,VALID,19.6038,VALID,152,VALID,0.5625,
2010-07-14, 00:30:05,VALID,917.094,VALID,0,VALID,97.3815,VALID,0,VALID,19.6248,VALID,152,VALID,0.580078,
2010-07-14, 00:31:05,VALID,917.057,VALID,0,VALID,97.3891,VALID,0,VALID,19.6038,VALID,152,VALID,0.620703,
2010-07-14, 00:32:05,VALID,917.058,VALID,0,VALID,97.3739,VALID,0,VALID,19.6053,VALID,152,VALID,0.700391,
2010-07-14, 00:33:05,VALID,917,VALID,0,VALID,97.3891,VALID,0,VALID,19.6038,VALID,152,VALID,0.781641,
2010-07-14, 00:34:05,VALID,917.001,VALID,0,VALID,97.3891,VALID,0,VALID,19.6428,VALID,152,VALID,0.583594,
2010-07-14, 00:35:05,VALID,916.998,VALID,0,VALID,97.3815,VALID,0,VALID,19.6443,VALID,152,VALID,0.752344,
2010-07-14, 00:36:05,VALID,916.969,VALID,0,VALID,97.3968,VALID,0,VALID,19.6233,VALID,152,VALID,0.507031,
2010-07-14, 00:37:05,VALID,916.974,VALID,0,VALID,97.4196,VALID,0,VALID,19.6233,VALID,152,VALID,0.498437,
2010-07-14, 00:38:05,VALID,916.959,VALID,0,VALID,97.3815,VALID,0,VALID,19.6233,VALID,152,VALID,0.691797,
2010-07-14, 00:39:05,VALID,916.956,VALID,0,VALID,97.3968,VALID,0,VALID,19.6443,VALID,142,VALID,0.5625,
2010-07-14, 00:40:05,VALID,916.937,VALID,0,VALID,97.412,VALID,0,VALID,19.6233,VALID,142,VALID,0.740234,
2010-07-14, 00:41:05,VALID,916.926,VALID,0,VALID,97.3891,VALID,0,VALID,19.5843,VALID,142,VALID,0.649609,
2010-07-14, 00:42:05,VALID,916.933,VALID,0,VALID,97.412,VALID,0,VALID,19.6248,VALID,142,VALID,0.911719,
2010-07-14, 00:43:05,VALID,916.94,VALID,0,VALID,97.4273,VALID,0,VALID,19.6038,VALID,142,VALID,0.478516,
2010-07-14, 00:44:05,VALID,916.95,VALID,0,VALID,97.4196,VALID,0,VALID,19.6038,VALID,142,VALID,0.431641,
2010-07-14, 00:45:05,VALID,916.965,VALID,0,VALID,97.4273,VALID,0,VALID,19.6233,VALID,142,VALID,0.638672,
2010-07-14, 00:46:05,VALID,917.02,VALID,0,VALID,97.4044,VALID,0,VALID,19.6233,VALID,142,VALID,0.557031,
2010-07-14, 00:47:05,VALID,916.998,VALID,0,VALID,97.4273,VALID,0,VALID,19.6233,VALID,142,VALID,0.300391,
2010-07-14, 00:48:05,VALID,917.046,VALID,0,VALID,97.4273,VALID,0,VALID,19.6443,VALID,142,VALID,0.534375,
2010-07-14, 00:49:05,VALID,917.043,VALID,0,VALID,97.4196,VALID,0,VALID,19.6623,VALID,142,VALID,0.640234,
2010-07-14, 00:50:05,VALID,917.053,VALID,0,VALID,97.4425,VALID,0,VALID,19.6428,VALID,142,VALID,0.166016,
2010-07-14, 00:51:05,VALID,917.033,VALID,0,VALID,97.4196,VALID,0,VALID,19.6638,VALID,142,VALID,0.0898438,
2010-07-14, 00:52:05,VALID,917.02,VALID,0,VALID,97.4425,VALID,0,VALID,19.6638,VALID,142,VALID,0.0117188,
2010-07-14, 00:53:05,VALID,917.006,VALID,0,VALID,97.4273,VALID,0,VALID,19.6233,VALID,142,VALID,0.342187,
2010-07-14, 00:54:05,VALID,916.975,VALID,0,VALID,97.4273,VALID,0,VALID,19.6248,VALID,142,VALID,0.385156,
2010-07-14, 00:55:05,VALID,916.966,VALID,0,VALID,97.4273,VALID,0,VALID,19.5648,VALID,142,VALID,0,
2010-07-14, 00:56:05,VALID,916.959,VALID,0,VALID,97.4273,VALID,0,VALID,19.5858,VALID,142,VALID,0,
2010-07-14, 00:57:05,VALID,916.943,VALID,0,VALID,97.4349,VALID,0,VALID,19.5258,VALID,143,VALID,0,
2010-07-14, 00:58:05,VALID,916.899,VALID,0,VALID,97.4501,VALID,0,VALID,19.5273,VALID,142,VALID,0,
2010-07-14, 00:59:05,VALID,916.88,VALID,0,VALID,97.4273,VALID,0,VALID,19.4673,VALID,142,VALID,0.36875,
2010-07-14, 01:00:05,VALID,916.896,VALID,0,VALID,97.4349,VALID,0,VALID,19.4283,VALID,142,VALID,0.438672,
2010-07-14, 01:01:05,VALID,916.883,VALID,0,VALID,97.4501,VALID,0,VALID,19.3893,VALID,142,VALID,0.576563,
2010-07-14, 01:02:05,VALID,916.909,VALID,0,VALID,97.4425,VALID,0.107441,VALID,19.3503,VALID,142,VALID,0.463672,
2010-07-14, 01:03:05,VALID,916.832,VALID,0,VALID,97.4349,VALID,0,VALID,19.3308,VALID,142,VALID,0.686328,
2010-07-14, 01:04:05,VALID,916.838,VALID,0,VALID,97.4425,VALID,0,VALID,19.2918,VALID,142,VALID,0.659375,
2010-07-14, 01:05:05,VALID,916.846,VALID,0,VALID,97.4501,VALID,0,VALID,19.2918,VALID,142,VALID,0.565234,
2010-07-14, 01:06:05,VALID,916.83,VALID,0,VALID,97.4577,VALID,0,VALID,19.2918,VALID,142,VALID,0.471094,
2010-07-14, 01:07:05,VALID,916.832,VALID,0,VALID,97.4577,VALID,0,VALID,19.3113,VALID,142,VALID,0.507422,
2010-07-14, 01:08:05,VALID,916.829,VALID,0,VALID,97.473,VALID,0,VALID,19.2528,VALID,142,VALID,0.419531,
2010-07-14, 01:09:05,VALID,916.828,VALID,0,VALID,97.4501,VALID,0,VALID,19.2528,VALID,142,VALID,0.0660156,
2010-07-14, 01:10:05,VALID,916.809,VALID,0,VALID,97.473,VALID,0,VALID,19.2334,VALID,143,VALID,0,
2010-07-14, 01:11:05,VALID,916.842,VALID,0,VALID,97.473,VALID,0,VALID,19.1944,VALID,142,VALID,0,
2010-07-14, 01:12:05,VALID,916.854,VALID,0,VALID,97.4501,VALID,0,VALID,19.1763,VALID,142,VALID,0,
2010-07-14, 01:13:05,VALID,916.847,VALID,0,VALID,97.473,VALID,0,VALID,19.1944,VALID,143,VALID,0.329297,
2010-07-14, 01:14:05,VALID,916.855,VALID,0,VALID,97.473,VALID,0,VALID,19.2738,VALID,142,VALID,0.191797,
2010-07-14, 01:15:05,VALID,916.828,VALID,0,VALID,97.5035,VALID,0,VALID,19.3518,VALID,142,VALID,0.317187,
2010-07-14, 01:16:05,VALID,916.86,VALID,0,VALID,97.4882,VALID,0,VALID,19.3908,VALID,142,VALID,0.324609,
2010-07-14, 01:17:05,VALID,916.868,VALID,0,VALID,97.4959,VALID,0,VALID,19.3908,VALID,143,VALID,0.00429688,
2010-07-14, 01:18:05,VALID,916.816,VALID,0,VALID,97.5111,VALID,0,VALID,19.3518,VALID,143,VALID,0.286328,
2010-07-14, 01:19:05,VALID,916.765,VALID,0,VALID,97.4806,VALID,0,VALID,19.3128,VALID,143,VALID,0.216406,
2010-07-14, 01:20:05,VALID,916.792,VALID,0,VALID,97.4959,VALID,0,VALID,19.2738,VALID,143,VALID,0.202344,
2010-07-14, 01:21:05,VALID,916.759,VALID,0,VALID,97.4959,VALID,0,VALID,19.1958,VALID,143,VALID,0.179297,
2010-07-14, 01:22:05,VALID,916.774,VALID,0,VALID,97.4882,VALID,0,VALID,19.1178,VALID,142,VALID,0.191406,
2010-07-14, 01:23:05,VALID,916.765,VALID,0,VALID,97.4959,VALID,0.107441,VALID,19.1164,VALID,142,VALID,0.182031,
2010-07-14, 01:24:05,VALID,916.757,VALID,0,VALID,97.5035,VALID,0,VALID,19.1944,VALID,142,VALID,0.266797,
2010-07-14, 01:25:05,VALID,916.765,VALID,0,VALID,97.5111,VALID,0,VALID,19.1944,VALID,142,VALID,0.455469,
2010-07-14, 01:26:05,VALID,916.763,VALID,0,VALID,97.4806,VALID,0,VALID,19.0203,VALID,143,VALID,0.578516,
2010-07-14, 01:27:05,VALID,916.753,VALID,0,VALID,97.4882,VALID,0,VALID,18.824,VALID,142,VALID,0.862891,
2010-07-14, 01:28:05,VALID,916.727,VALID,0,VALID,97.5035,VALID,0,VALID,18.8644,VALID,142,VALID,1.1,
2010-07-14, 01:29:05,VALID,916.717,VALID,0,VALID,97.4882,VALID,0,VALID,18.9034,VALID,143,VALID,0.804297,
2010-07-14, 01:30:05,VALID,916.645,VALID,0,VALID,97.5187,VALID,0,VALID,18.9409,VALID,142,VALID,0.749219,
2010-07-14, 01:31:05,VALID,916.629,VALID,0,VALID,97.534,VALID,0,VALID,18.9604,VALID,142,VALID,0.780078,
2010-07-14, 01:32:05,VALID,916.614,VALID,0,VALID,97.5264,VALID,0,VALID,18.9619,VALID,142,VALID,0.716406,
2010-07-14, 01:33:05,VALID,916.6,VALID,0,VALID,97.534,VALID,0,VALID,18.9814,VALID,142,VALID,0.785937,
2010-07-14, 01:34:05,VALID,916.591,VALID,0,VALID,97.5416,VALID,0,VALID,19.0189,VALID,143,VALID,0.719922,
2010-07-14, 01:35:05,VALID,916.602,VALID,0,VALID,97.5492,VALID,0,VALID,19.0983,VALID,143,VALID,0.885156,
2010-07-14, 01:36:05,VALID,916.591,VALID,0,VALID,97.5569,VALID,0,VALID,19.1568,VALID,142,VALID,0.759375,
2010-07-14, 01:37:05,VALID,916.596,VALID,0,VALID,97.5416,VALID,0,VALID,19.1178,VALID,142,VALID,0.646484,
2010-07-14, 01:38:05,VALID,916.556,VALID,0,VALID,97.5492,VALID,0,VALID,19.0398,VALID,143,VALID,0.553906,
2010-07-14, 01:39:05,VALID,916.542,VALID,0,VALID,97.5492,VALID,0,VALID,18.9424,VALID,143,VALID,0.674609,
2010-07-14, 01:40:05,VALID,916.519,VALID,0,VALID,97.5492,VALID,0,VALID,18.8839,VALID,142,VALID,0.823438,
2010-07-14, 01:41:05,VALID,916.472,VALID,0,VALID,97.5645,VALID,0,VALID,18.8839,VALID,142,VALID,0.964063,
2010-07-14, 01:42:05,VALID,916.469,VALID,0,VALID,97.5492,VALID,0,VALID,18.9214,VALID,142,VALID,1.07344,
2010-07-14, 01:43:05,VALID,916.435,VALID,0,VALID,97.5492,VALID,0,VALID,18.9619,VALID,142,VALID,1.03281,
2010-07-14, 01:44:05,VALID,916.418,VALID,0,VALID,97.5492,VALID,0,VALID,18.9619,VALID,142,VALID,0.860156,
2010-07-14, 01:45:05,VALID,916.374,VALID,0,VALID,97.5645,VALID,0,VALID,18.9424,VALID,142,VALID,0.538281,
2010-07-14, 01:46:05,VALID,916.397,VALID,0,VALID,97.5873,VALID,0,VALID,19.0203,VALID,142,VALID,0.99375,
2010-07-14, 01:47:05,VALID,916.314,VALID,0,VALID,97.5797,VALID,0,VALID,19.0189,VALID,142,VALID,0.932422,
2010-07-14, 01:48:05,VALID,916.327,VALID,0,VALID,97.5569,VALID,0,VALID,19.0203,VALID,142,VALID,0.792578,
2010-07-14, 01:49:05,VALID,916.288,VALID,0,VALID,97.5797,VALID,0,VALID,19.0593,VALID,142,VALID,0.921094,
2010-07-14, 01:50:05,VALID,916.262,VALID,0,VALID,97.5797,VALID,0,VALID,19.0788,VALID,142,VALID,0.661719,
2010-07-14, 01:51:05,VALID,916.25,VALID,0,VALID,97.5645,VALID,0,VALID,19.1178,VALID,142,VALID,0.820703,
2010-07-14, 01:52:05,VALID,916.219,VALID,0,VALID,97.5721,VALID,0,VALID,19.1373,VALID,142,VALID,0.953906,
2010-07-14, 01:53:05,VALID,916.156,VALID,0,VALID,97.5873,VALID,0,VALID,19.1763,VALID,142,VALID,0.944922,
2010-07-14, 01:54:05,VALID,916.169,VALID,0,VALID,97.5645,VALID,0,VALID,19.2153,VALID,142,VALID,0.751562,
2010-07-14, 01:55:05,VALID,916.111,VALID,0,VALID,97.5721,VALID,0,VALID,19.2348,VALID,142,VALID,0.745703,
2010-07-14, 01:56:05,VALID,916.102,VALID,0,VALID,97.5721,VALID,0,VALID,19.2543,VALID,142,VALID,0.525,
2010-07-14, 01:57:05,VALID,916.105,VALID,0,VALID,97.534,VALID,0,VALID,19.2738,VALID,143,VALID,0.255469,
2010-07-14, 01:58:05,VALID,916.091,VALID,0,VALID,97.5645,VALID,0,VALID,19.2738,VALID,142,VALID,0.297656,
2010-07-14, 01:59:05,VALID,916.08,VALID,0,VALID,97.5645,VALID,0,VALID,19.2738,VALID,142,VALID,0,
2010-07-14, 02:00:05,VALID,916.041,VALID,0,VALID,97.5721,VALID,0,VALID,19.2528,VALID,142,VALID,0.365234,
2010-07-14, 02:01:05,VALID,916.047,VALID,0,VALID,97.595,VALID,0.107441,VALID,19.2723,VALID,142,VALID,0,
2010-07-14, 02:02:05,VALID,915.989,VALID,0,VALID,97.5645,VALID,0,VALID,19.2543,VALID,142,VALID,0.271875,
2010-07-14, 02:03:05,VALID,915.984,VALID,0,VALID,97.5645,VALID,0,VALID,19.2334,VALID,142,VALID,0.327344,
2010-07-14, 02:04:05,VALID,915.964,VALID,0,VALID,97.5797,VALID,0,VALID,19.2139,VALID,142,VALID,0.648828,
2010-07-14, 02:05:05,VALID,915.931,VALID,0,VALID,97.5645,VALID,0,VALID,19.1749,VALID,142,VALID,0.491016,
2010-07-14, 02:06:05,VALID,915.909,VALID,0,VALID,97.5645,VALID,0,VALID,19.1568,VALID,142,VALID,0.789063,
2010-07-14, 02:07:05,VALID,915.897,VALID,0,VALID,97.5721,VALID,0,VALID,19.1568,VALID,142,VALID,0.676562,
2010-07-14, 02:08:05,VALID,915.868,VALID,0,VALID,97.5721,VALID,0,VALID,19.1373,VALID,142,VALID,0.216797,
2010-07-14, 02:09:05,VALID,915.845,VALID,0,VALID,97.5721,VALID,0,VALID,19.1178,VALID,142,VALID,0.482031,
2010-07-14, 02:10:05,VALID,915.814,VALID,0,VALID,97.5721,VALID,0,VALID,19.1178,VALID,142,VALID,0.4125,
2010-07-14, 02:11:04,VALID,915.798,VALID,0,VALID,97.5797,VALID,0,VALID,19.0774,VALID,142,VALID,0.378906,
2010-07-14, 02:12:04,VALID,915.807,VALID,0,VALID,97.5797,VALID,0,VALID,19.0579,VALID,142,VALID,0.942578,
2010-07-14, 02:13:04,VALID,915.793,VALID,0,VALID,97.5645,VALID,0,VALID,19.0398,VALID,142,VALID,1.20273,
2010-07-14, 02:14:04,VALID,915.782,VALID,0,VALID,97.595,VALID,0,VALID,19.0398,VALID,142,VALID,1.05156,
2010-07-14, 02:15:04,VALID,915.729,VALID,0,VALID,97.5873,VALID,0,VALID,18.9619,VALID,142,VALID,0.948828,
2010-07-14, 02:16:04,VALID,915.684,VALID,0,VALID,97.5721,VALID,0,VALID,18.9424,VALID,138,VALID,1.24219,
2010-07-14, 02:17:04,VALID,915.687,VALID,0,VALID,97.5797,VALID,0,VALID,18.9424,VALID,116,VALID,0.791016,
2010-07-14, 02:18:04,VALID,915.689,VALID,0,VALID,97.595,VALID,0,VALID,18.8839,VALID,116,VALID,0.988281,
2010-07-14, 02:19:04,VALID,915.677,VALID,0,VALID,97.6026,VALID,0,VALID,18.8839,VALID,116,VALID,0.860937,
2010-07-14, 02:20:04,VALID,915.641,VALID,0,VALID,97.6026,VALID,0,VALID,18.8839,VALID,116,VALID,1.01719,
2010-07-14, 02:21:04,VALID,915.66,VALID,0,VALID,97.6026,VALID,0,VALID,18.8853,VALID,116,VALID,0.907422,
2010-07-14, 02:22:04,VALID,915.645,VALID,0,VALID,97.6026,VALID,0,VALID,18.8839,VALID,116,VALID,1.09609,
2010-07-14, 02:23:04,VALID,915.625,VALID,0,VALID,97.6255,VALID,0,VALID,18.8644,VALID,116,VALID,0.898047,
2010-07-14, 02:24:04,VALID,915.598,VALID,0,VALID,97.6026,VALID,0,VALID,18.8644,VALID,116,VALID,0.978125,
2010-07-14, 02:25:04,VALID,915.568,VALID,0,VALID,97.6331,VALID,0,VALID,18.8254,VALID,116,VALID,0.851563,
2010-07-14, 02:26:04,VALID,915.601,VALID,0,VALID,97.6102,VALID,0,VALID,18.8658,VALID,116,VALID,0.782422,
2010-07-14, 02:27:04,VALID,915.577,VALID,0,VALID,97.6331,VALID,0,VALID,18.8254,VALID,116,VALID,0.501172,
2010-07-14, 02:28:04,VALID,915.549,VALID,0,VALID,97.6255,VALID,0,VALID,18.7864,VALID,116,VALID,0.755078,
2010-07-14, 02:29:04,VALID,915.564,VALID,0,VALID,97.6102,VALID,0,VALID,18.7669,VALID,116,VALID,0.601172,
2010-07-14, 02:30:04,VALID,915.528,VALID,0,VALID,97.6255,VALID,0,VALID,18.7474,VALID,116,VALID,0.776172,
2010-07-14, 02:31:04,VALID,915.539,VALID,0,VALID,97.6026,VALID,0,VALID,18.7279,VALID,116,VALID,0.810156,
2010-07-14, 02:32:04,VALID,915.49,VALID,0,VALID,97.6331,VALID,0,VALID,18.7474,VALID,116,VALID,0.616016,
2010-07-14, 02:33:04,VALID,915.497,VALID,0,VALID,97.6255,VALID,0,VALID,18.7279,VALID,116,VALID,0.461719,
2010-07-14, 02:34:04,VALID,915.488,VALID,0,VALID,97.6331,VALID,0,VALID,18.7474,VALID,116,VALID,0.707031,
2010-07-14, 02:35:04,VALID,915.479,VALID,0,VALID,97.6255,VALID,0,VALID,18.7279,VALID,116,VALID,0.649609,
2010-07-14, 02:36:04,VALID,915.51,VALID,0,VALID,97.6331,VALID,0,VALID,18.7474,VALID,116,VALID,0.496094,
2010-07-14, 02:37:04,VALID,915.499,VALID,0,VALID,97.6255,VALID,0,VALID,18.7279,VALID,116,VALID,0.491406,
2010-07-14, 02:38:04,VALID,915.499,VALID,0,VALID,97.6483,VALID,0.107441,VALID,18.7669,VALID,116,VALID,0.669141,
2010-07-14, 02:39:04,VALID,915.474,VALID,0,VALID,97.656,VALID,0,VALID,18.746,VALID,116,VALID,0.634766,
2010-07-14, 02:40:04,VALID,915.483,VALID,0,VALID,97.6331,VALID,0,VALID,18.7864,VALID,116,VALID,0.430859,
2010-07-14, 02:41:04,VALID,915.479,VALID,0,VALID,97.656,VALID,0,VALID,18.7864,VALID,116,VALID,0.448047,
2010-07-14, 02:42:04,VALID,915.44,VALID,0,VALID,97.6483,VALID,0,VALID,18.7474,VALID,116,VALID,0.263672,
2010-07-14, 02:43:04,VALID,915.456,VALID,0,VALID,97.6483,VALID,0,VALID,18.7084,VALID,116,VALID,0.00195313,
2010-07-14, 02:44:04,VALID,915.464,VALID,0,VALID,97.6331,VALID,0,VALID,18.6694,VALID,116,VALID,0.384766,
2010-07-14, 02:45:04,VALID,915.469,VALID,0,VALID,97.6483,VALID,0,VALID,18.6694,VALID,116,VALID,0.287109,
2010-07-14, 02:46:04,VALID,915.442,VALID,0,VALID,97.6407,VALID,0,VALID,18.6499,VALID,116,VALID,0.30625,
2010-07-14, 02:47:04,VALID,915.453,VALID,0,VALID,97.6483,VALID,0,VALID,18.6304,VALID,116,VALID,0.385938,
2010-07-14, 02:48:04,VALID,915.478,VALID,0,VALID,97.656,VALID,0,VALID,18.572,VALID,116,VALID,0.253125,
2010-07-14, 02:49:04,VALID,915.474,VALID,0,VALID,97.656,VALID,0,VALID,18.533,VALID,116,VALID,0.11875,
2010-07-14, 02:50:04,VALID,915.5,VALID,0,VALID,97.6407,VALID,0,VALID,18.533,VALID,116,VALID,0.170703,
2010-07-14, 02:51:04,VALID,915.507,VALID,0,VALID,97.6636,VALID,0,VALID,18.4355,VALID,116,VALID,0,
2010-07-14, 02:52:04,VALID,915.52,VALID,0,VALID,97.6331,VALID,0,VALID,18.3185,VALID,116,VALID,0,
2010-07-14, 02:53:04,VALID,915.526,VALID,0,VALID,97.656,VALID,0.107441,VALID,18.2601,VALID,116,VALID,0,
2010-07-14, 02:54:04,VALID,915.516,VALID,0,VALID,97.6712,VALID,0.107441,VALID,18.2002,VALID,116,VALID,0,
2010-07-14, 02:55:04,VALID,915.53,VALID,0,VALID,97.6407,VALID,0,VALID,18.2016,VALID,116,VALID,0.0105469,
2010-07-14, 02:56:04,VALID,915.535,VALID,0,VALID,97.6483,VALID,0,VALID,18.1236,VALID,116,VALID,0.411719,
2010-07-14, 02:57:04,VALID,915.553,VALID,0,VALID,97.656,VALID,0,VALID,18.1626,VALID,116,VALID,0.744141,
2010-07-14, 02:58:04,VALID,915.526,VALID,0,VALID,97.6636,VALID,0,VALID,18.2796,VALID,116,VALID,0.807813,
2010-07-14, 02:59:04,VALID,915.505,VALID,0,VALID,97.6865,VALID,0,VALID,18.338,VALID,116,VALID,0.942187,
2010-07-14, 03:00:04,VALID,915.536,VALID,0,VALID,97.6712,VALID,0,VALID,18.3185,VALID,116,VALID,0.960938,
2010-07-14, 03:01:04,VALID,915.537,VALID,0,VALID,97.6788,VALID,0,VALID,18.3199,VALID,116,VALID,1.04023,
2010-07-14, 03:02:04,VALID,915.546,VALID,0,VALID,97.6788,VALID,0,VALID,18.299,VALID,116,VALID,1.16367,
2010-07-14, 03:03:04,VALID,915.529,VALID,0,VALID,97.7017,VALID,0,VALID,18.299,VALID,125,VALID,1.08164,
2010-07-14, 03:04:04,VALID,915.526,VALID,0,VALID,97.7169,VALID,0,VALID,18.3394,VALID,125,VALID,0.942578,
2010-07-14, 03:05:04,VALID,915.504,VALID,0,VALID,97.7093,VALID,0,VALID,18.3185,VALID,126,VALID,0.622266,
2010-07-14, 03:06:04,VALID,915.499,VALID,0,VALID,97.7093,VALID,0,VALID,18.3589,VALID,141,VALID,0.651563,
2010-07-14, 03:07:04,VALID,915.476,VALID,0,VALID,97.7093,VALID,0,VALID,18.4174,VALID,147,VALID,0.822266,
2010-07-14, 03:08:04,VALID,915.477,VALID,0,VALID,97.7169,VALID,0,VALID,18.4759,VALID,147,VALID,0.966797,
2010-07-14, 03:09:04,VALID,915.456,VALID,0,VALID,97.7169,VALID,0,VALID,18.4745,VALID,147,VALID,0.745703,
2010-07-14, 03:10:04,VALID,915.442,VALID,0,VALID,97.7017,VALID,0,VALID,18.5344,VALID,147,VALID,0.746484,
2010-07-14, 03:11:04,VALID,915.429,VALID,0,VALID,97.7017,VALID,0,VALID,18.5344,VALID,147,VALID,0.581641,
2010-07-14, 03:12:04,VALID,915.42,VALID,0,VALID,97.6865,VALID,0,VALID,18.5734,VALID,147,VALID,0.636719,
2010-07-14, 03:13:04,VALID,915.421,VALID,0,VALID,97.6865,VALID,0,VALID,18.533,VALID,147,VALID,0.498828,
2010-07-14, 03:14:04,VALID,915.424,VALID,0,VALID,97.7017,VALID,0,VALID,18.533,VALID,147,VALID,0.673828,
2010-07-14, 03:15:04,VALID,915.41,VALID,0,VALID,97.7017,VALID,0,VALID,18.5929,VALID,147,VALID,0.873047,
2010-07-14, 03:16:04,VALID,915.442,VALID,0,VALID,97.7017,VALID,0,VALID,18.5525,VALID,147,VALID,0.553125,
2010-07-14, 03:17:04,VALID,915.397,VALID,0,VALID,97.7169,VALID,0,VALID,18.5734,VALID,147,VALID,0.751172,
2010-07-14, 03:18:04,VALID,915.393,VALID,0,VALID,97.7017,VALID,0,VALID,18.5525,VALID,147,VALID,0.605859,
2010-07-14, 03:19:04,VALID,915.403,VALID,0,VALID,97.7093,VALID,0,VALID,18.5525,VALID,147,VALID,0.933203,
2010-07-14, 03:20:04,VALID,915.381,VALID,0,VALID,97.7017,VALID,0,VALID,18.6124,VALID,147,VALID,0.823438,
2010-07-14, 03:21:04,VALID,915.389,VALID,0,VALID,97.7093,VALID,0,VALID,18.5734,VALID,147,VALID,0.791406,
2010-07-14, 03:22:04,VALID,915.374,VALID,0,VALID,97.7017,VALID,0,VALID,18.5525,VALID,147,VALID,0.740234,
2010-07-14, 03:23:04,VALID,915.351,VALID,0,VALID,97.7017,VALID,0,VALID,18.533,VALID,147,VALID,1.11367,
2010-07-14, 03:24:04,VALID,915.297,VALID,0,VALID,97.7246,VALID,0,VALID,18.5344,VALID,147,VALID,0.647266,
2010-07-14, 03:25:04,VALID,915.298,VALID,0,VALID,97.6941,VALID,0,VALID,18.4745,VALID,147,VALID,1.26289,
2010-07-14, 03:26:04,VALID,915.32,VALID,0,VALID,97.6941,VALID,0,VALID,18.4759,VALID,147,VALID,0.588281,
2010-07-14, 03:27:04,VALID,915.317,VALID,0,VALID,97.7017,VALID,0,VALID,18.416,VALID,147,VALID,1.08164,
2010-07-14, 03:28:04,VALID,915.318,VALID,0,VALID,97.7093,VALID,0,VALID,18.4174,VALID,147,VALID,0.658594,
2010-07-14, 03:29:04,VALID,915.364,VALID,0,VALID,97.7017,VALID,0,VALID,18.3979,VALID,147,VALID,0.955469,
2010-07-14, 03:30:04,VALID,915.334,VALID,0,VALID,97.7093,VALID,0,VALID,18.3979,VALID,147,VALID,0.892578,
2010-07-14, 03:31:04,VALID,915.366,VALID,0,VALID,97.7093,VALID,0,VALID,18.3589,VALID,147,VALID,1.11211,
2010-07-14, 03:32:04,VALID,915.339,VALID,0,VALID,97.7017,VALID,0,VALID,18.3185,VALID,147,VALID,0.590625,
2010-07-14, 03:33:04,VALID,915.347,VALID,0,VALID,97.7169,VALID,0,VALID,18.2601,VALID,147,VALID,0.639063,
2010-07-14, 03:34:04,VALID,915.303,VALID,0,VALID,97.6941,VALID,0,VALID,18.2211,VALID,147,VALID,0.746875,
2010-07-14, 03:35:04,VALID,915.356,VALID,0,VALID,97.7093,VALID,0,VALID,18.2016,VALID,147,VALID,0.809375,
2010-07-14, 03:36:04,VALID,915.336,VALID,0,VALID,97.7169,VALID,0,VALID,18.2406,VALID,147,VALID,0.776172,
2010-07-14, 03:37:04,VALID,915.362,VALID,0,VALID,97.7093,VALID,0,VALID,18.2406,VALID,147,VALID,0.412109,
2010-07-14, 03:38:04,VALID,915.373,VALID,0,VALID,97.7017,VALID,0,VALID,18.242,VALID,147,VALID,0.594922,
2010-07-14, 03:39:04,VALID,915.387,VALID,0,VALID,97.6941,VALID,0,VALID,18.2211,VALID,147,VALID,0.810547,
2010-07-14, 03:40:04,VALID,915.391,VALID,0,VALID,97.7093,VALID,0,VALID,18.2211,VALID,147,VALID,0.344922,
2010-07-14, 03:41:04,VALID,915.408,VALID,0,VALID,97.6865,VALID,0,VALID,18.2225,VALID,147,VALID,0.766016,
2010-07-14, 03:42:04,VALID,915.39,VALID,0,VALID,97.7017,VALID,0,VALID,18.2225,VALID,147,VALID,1.0543,
2010-07-14, 03:43:04,VALID,915.374,VALID,0,VALID,97.7093,VALID,0,VALID,18.1626,VALID,147,VALID,0.608594,
2010-07-14, 03:44:04,VALID,915.377,VALID,0,VALID,97.7246,VALID,0,VALID,18.203,VALID,147,VALID,0.7375,
2010-07-14, 03:45:04,VALID,915.357,VALID,0,VALID,97.7169,VALID,0,VALID,18.1821,VALID,147,VALID,0.497266,